THORAD DELTA 1 DEB, 8184

Orbit data source: Space-Track

THORAD DELTA 1 DEB, 8184 is space debris in SSO originally from a launch on Fri, 15 Nov 1974 UTC launched from the Air Force Western Test Range (AFWTR). Debris objects in space refer to the collection of defunct objects orbiting the Earth. Examples of debris include non-operational satellites, rocket bodies, and fragments generated from explosions, collisions, or faulty payload assembly.

Loading next visibility...
Identifier
8184, 1974-089BA
Orbit
SSO
Country
Flag of USUS
Related business
Manufacturer
Unknown
Mission
Spacecraft
Bus & Motor
Unknown
Mass
Unknown
Launch date (UTC)
1974-11-15 (52 years ago)
Launch vehicle
Unknown
Launch site
Air Force Western Test Range (AFWTR)
Object type
Payload
Rocket body
Debris
Shape & HBR
Unknown shape, 0.6 m
Radar Cross Section
Medium (>0.1 m² and <1 m²)

Expand to show TLE details & history
Last TLE update: 9 hours ago

TLE from 9 hours ago
0 THORAD DELTA 1 DEB
1 08184U 74089BA  26144.86538240  .00000001  00000-0  29423-3 0  9996
2 08184 101.5405 106.6961 0063641 156.6028 231.8962 12.47608006346004
Epoch: 2026-05-24T20:46Z
TLE epoch observation values (Epoch: 2026-05-24T20:46:09.039Z)
Latitude
27.35384°
Longitude
-93.33686°
Altitude
1,508.615 km
Speed
7.099 km/s
True Right ascension
06h 42m 38s
True Declination
27° 13' 37"
Sunlit
Object was in daylight at epoch
Visualization orbit readout
Latitude
Unknown
Longitude
Unknown
Altitude
Unknown
Speed
Unknown
Apparent Right ascension
Unknown
Apparent Declination
Unknown
Sunlit
N/A
Visualization observer readout
Local Sidereal Time
14:32:28
Azimuth
Unknown
Elevation
Unknown
Doppler factor
Unknown
Orbital elements
Apogee altitude
1,522.013 km
Perigee altitude
1,422.094 km
Semi-major axis
7,850.191 km
Eccentricity
0.00636
Inclination
101.5405°
RAAN
106.6961°
Arg. of periapsis
156.6028°
True anomaly
231.32515°
Mean anomaly
231.8962°
Eccentric anomaly
231.6104°
Mean motion
3.12049 °/min
Orbital period
115.37 mins
BSTAR
0.00029423
Loading maneuver chart data...
Computing Atmospheric mass density...

Documentation

Showing up to 5 results
|